Winnsboro, SC

4:18 AM EDT on July 25, 2017 (GMT -0400)
Fairfield County

Weather History for KFDW - October, 2011

Change the Weather History Date:

Wednesday, October 5, 2011

  Actual Average Record
Temperature  
Mean Temperature 66 °F -  
Max Temperature 78 °F 79 °F 86 °F (2013)
Min Temperature 53 °F 53 °F 41 °F (2014)
Growing Degree Days 16 (Base 50)    
Moisture  
Dew Point 47 °F    
Average Humidity 53    
Maximum Humidity 82    
Minimum Humidity 26    
Precipitation  
Precipitation 0.00 in - - ()
Sea Level Pressure  
Sea Level Pressure 30.23 in    
Wind  
Wind Speed 3 mph (NE)    
Max Wind Speed 9 mph    
Max Gust Speed -    
Visibility 10 miles    
Events      
Averages and records for this station are not official NWS values.
T = Trace of Precipitation, MM = Missing Value Source: NWS Daily Summary

Daily Weather History Graph

Daily Weather History Graph

Search for Another Location

Airport or City:

Trip Planner

Search our weather history database for the weather conditions in past years. The results will help you decide how hot, cold, wet, or windy it might be!

Date:

Astronomy

Oct. 05, 2011 Rise Set
Actual Time 7:21 AM EDT 7:03 PM EDT
Civil Twilight 6:56 AM EDT 7:28 PM EDT
Nautical Twilight 6:27 AM EDT 7:57 PM EDT
Astronomical Twilight 5:58 AM EDT 8:26 PM EDT
Moon 3:29 PM EDT (10/5) 1:22 AM EDT (10/5)
Length of Visible Light 12h 31m
Length of Day
11h 41m
Waxing Gibbous, 66% of the Moon is Illuminated
Oct 5
Waxing Gibbous
Oct 11
Full
Oct 19
Last Quarter
Oct 26
New
Nov 2
First Quarter

Hourly Weather History & Observations

Time (EDT) Temp. Dew Point Humidity Pressure Visibility Wind Dir Wind Speed Gust Speed Precip Events Conditions
12:15 AM 64.4 °F 44.6 °F 49% 30.22 in 10.0 mi ESE 3.5 mph - N/A   Clear
12:35 AM 64.4 °F 44.6 °F 49% 30.22 in 10.0 mi Calm Calm - N/A   Clear
12:55 AM 60.8 °F 48.2 °F 63% 30.22 in 10.0 mi East 3.5 mph - N/A   Clear
1:15 AM 60.8 °F 48.2 °F 63% 30.23 in 10.0 mi East 3.5 mph - N/A   Clear
1:35 AM 59.0 °F 50.0 °F 72% 30.23 in 10.0 mi East 3.5 mph - N/A   Clear
1:55 AM 57.2 °F 48.2 °F 72% 30.23 in 10.0 mi Calm Calm - N/A   Clear
2:15 AM 59.0 °F 48.2 °F 67% 30.23 in 10.0 mi Calm Calm - N/A   Clear
2:35 AM 59.0 °F 48.2 °F 67% 30.23 in 10.0 mi Calm Calm - N/A   Clear
2:55 AM 55.4 °F 48.2 °F 77% 30.23 in 10.0 mi Calm Calm - N/A   Clear
3:15 AM 55.4 °F 48.2 °F 77% 30.23 in 10.0 mi Calm Calm - N/A   Clear
3:35 AM 55.4 °F 48.2 °F 77% 30.23 in 10.0 mi Calm Calm - N/A   Clear
3:55 AM 55.4 °F 48.2 °F 77% 30.22 in 10.0 mi Calm Calm - N/A   Clear
4:15 AM 53.6 °F 48.2 °F 82% 30.23 in 10.0 mi NNE 5.8 mph - N/A   Clear
4:35 AM 55.4 °F 50.0 °F 82% 30.24 in 10.0 mi NE 6.9 mph - N/A   Clear
5:15 AM 59.0 °F 50.0 °F 72% 30.24 in 10.0 mi NNE 6.9 mph - N/A   Clear
5:35 AM 59.0 °F 50.0 °F 72% 30.24 in 10.0 mi NNE 6.9 mph - N/A   Clear
6:15 AM 59.0 °F 48.2 °F 67% 30.25 in 10.0 mi NE 9.2 mph - N/A   Clear
6:35 AM 59.0 °F 48.2 °F 67% 30.25 in 10.0 mi NE 8.1 mph - N/A   Clear
6:55 AM 59.0 °F 48.2 °F 67% 30.25 in 10.0 mi NE 5.8 mph - N/A   Clear
7:15 AM 57.2 °F 48.2 °F 72% 30.25 in 10.0 mi NE 6.9 mph - N/A   Clear
7:35 AM 57.2 °F 48.2 °F 72% 30.26 in 10.0 mi NE 5.8 mph - N/A   Clear
8:15 AM 57.2 °F 50.0 °F 77% 30.27 in 10.0 mi NE 5.8 mph - N/A   Clear
8:35 AM 59.0 °F 50.0 °F 72% 30.27 in 7.0 mi NE 5.8 mph - N/A   Clear
8:55 AM 60.8 °F 50.0 °F 68% 30.27 in 10.0 mi NE 6.9 mph - N/A   Clear
9:15 AM 62.6 °F 50.0 °F 63% 30.28 in 7.0 mi NE 8.1 mph - N/A   Clear
9:35 AM 62.6 °F 48.2 °F 59% 30.28 in 10.0 mi ENE 9.2 mph - N/A   Clear
9:55 AM 64.4 °F 48.2 °F 56% 30.28 in 10.0 mi NE 8.1 mph - N/A   Clear
10:15 AM 64.4 °F 48.2 °F 56% 30.29 in 10.0 mi ENE 6.9 mph - N/A   Clear
10:35 AM 68.0 °F 50.0 °F 52% 30.29 in 10.0 mi NE 4.6 mph - N/A   Clear
10:55 AM 68.0 °F 50.0 °F 52% 30.29 in 10.0 mi NE 3.5 mph - N/A   Clear
11:15 AM 69.8 °F 50.0 °F 49% 30.29 in 10.0 mi Calm Calm - N/A   Clear
11:35 AM 69.8 °F 48.2 °F 46% 30.28 in 10.0 mi NE 3.5 mph - N/A   Clear
12:15 PM 73.4 °F 46.4 °F 38% 30.28 in 10.0 mi North 5.8 mph - N/A   Clear
12:35 PM 73.4 °F 46.4 °F 38% 30.27 in 10.0 mi NNE 3.5 mph - N/A   Clear
12:55 PM 73.4 °F 46.4 °F 38% 30.26 in 10.0 mi Calm Calm - N/A   Clear
1:15 PM 73.4 °F 44.6 °F 36% 30.26 in 10.0 mi North 4.6 mph - N/A   Clear
1:35 PM 75.2 °F 46.4 °F 36% 30.25 in 10.0 mi Calm Calm - N/A   Clear
1:55 PM 75.2 °F 46.4 °F 36% 30.24 in 10.0 mi NW 3.5 mph - N/A   Clear
2:15 PM 77.0 °F 44.6 °F 32% 30.23 in 10.0 mi NNE 4.6 mph - N/A   Clear
2:35 PM 77.0 °F 44.6 °F 32% 30.22 in 10.0 mi NE 4.6 mph - N/A   Clear
2:55 PM 78.8 °F 42.8 °F 28% 30.21 in 10.0 mi North 4.6 mph - N/A   Clear
3:15 PM 78.8 °F 44.6 °F 30% 30.21 in 10.0 mi NW 3.5 mph - N/A   Clear
3:35 PM 78.8 °F 42.8 °F 28% 30.20 in 10.0 mi NNE 6.9 mph - N/A   Clear
3:55 PM 78.8 °F 41.0 °F 26% 30.20 in 10.0 mi North 4.6 mph - N/A   Clear
4:15 PM 78.8 °F 41.0 °F 26% 30.20 in 10.0 mi ENE 5.8 mph - N/A   Clear
4:35 PM 78.8 °F 42.8 °F 28% 30.19 in 10.0 mi Calm Calm - N/A   Clear
4:55 PM 78.8 °F 42.8 °F 28% 30.18 in 10.0 mi NNE 5.8 mph - N/A   Clear
5:35 PM 78.8 °F 42.8 °F 28% 30.18 in 10.0 mi Calm Calm - N/A   Clear
5:55 PM 78.8 °F 42.8 °F 28% 30.18 in 10.0 mi ENE 3.5 mph - N/A   Clear
6:15 PM 78.8 °F 44.6 °F 30% 30.18 in 10.0 mi NNE 3.5 mph - N/A   Clear
6:35 PM 77.0 °F 46.4 °F 34% 30.18 in 10.0 mi Calm Calm - N/A   Clear
6:55 PM 77.0 °F 46.4 °F 34% 30.18 in 10.0 mi Calm Calm - N/A   Clear
7:15 PM 73.4 °F 50.0 °F 44% 30.18 in 10.0 mi Calm Calm - N/A   Clear
7:35 PM 71.6 °F 51.8 °F 50% 30.19 in 10.0 mi East 3.5 mph - N/A   Clear
7:55 PM 71.6 °F 51.8 °F 50% 30.19 in 10.0 mi East 3.5 mph - N/A   Clear
8:15 PM 69.8 °F 51.8 °F 53% 30.20 in 10.0 mi East 3.5 mph - N/A   Clear
8:35 PM 69.8 °F 51.8 °F 53% 30.20 in 10.0 mi East 3.5 mph - N/A   Clear
8:55 PM 69.8 °F 50.0 °F 49% 30.20 in 10.0 mi Calm Calm - N/A   Clear
9:15 PM 68.0 °F 50.0 °F 52% 30.20 in 10.0 mi Calm Calm - N/A   Clear
9:35 PM 68.0 °F 51.8 °F 56% 30.21 in 10.0 mi Calm Calm - N/A   Clear
9:55 PM 66.2 °F 51.8 °F 60% 30.21 in 10.0 mi Calm Calm - N/A   Clear
10:15 PM 66.2 °F 51.8 °F 60% 30.21 in 10.0 mi Calm Calm - N/A   Clear
10:35 PM 64.4 °F 51.8 °F 64% 30.22 in 10.0 mi ENE 3.5 mph - N/A   Clear
10:55 PM 66.2 °F 50.0 °F 56% 30.22 in 10.0 mi ENE 4.6 mph - N/A   Clear
11:15 PM 64.4 °F 50.0 °F 59% 30.22 in 10.0 mi ENE 4.6 mph - N/A   Clear
11:35 PM 66.2 °F 50.0 °F 56% 30.22 in 10.0 mi East 5.8 mph - N/A   Clear
11:55 PM 66.2 °F 48.2 °F 52% 30.23 in 10.0 mi ENE 4.6 mph - N/A   Clear